Kodiak, AK

10:35 AM AKST en Febrero 18, 2018 (GMT -0900)
Kodiak

Tiempo Historia de PADQ - Febrero, 2018

Change the Weather History Date:

Martes, Febrero 13, 2018

  Actual Average Record
Temperature  
Temperatura media 40 ° F 31 ° F  
Temperatura máxima 42 ° F 35 ° F 51 ° F (1927)
Temperatura mínima 37 ° F 26 ° F -4 ° F (1972)
Degree Days  
Grados día de calefacción 25 34  
Month to date heating degree days 373 451  
Since 1 July heating degree days 4851 5365  
Cooling Degree Days 0 0  
Month to date cooling degree days 0 0  
Year to date cooling degree days 0 0  
Moisture  
Punto de rocío 23 ° F    
Average Humidity 50    
Maximum Humidity 59    
Minimum Humidity 41    
Precipitación  
Precipitación 0.00 pul 0.22 pul 1.52 pul (1991)
Month to date precipitation 4.10 3.03  
Year to date precipitation 10.37 11.32  
Nieve  
Nieve 0.00 pul 0.60 pul 8.30 pul (2009)
Month to date snowfall 0.3 7.0  
Since 1 July snowfall 11.9 41.3  
Grosos de nieve 0.00 pul    
Presión al nivel del mar  
Presión al nivel del mar 30.21 pul    
Viento  
Velocidad del viento 20 mph (Oeste)    
Velocidad máxima del viento 37 mph    
Max Gust Speed 54 mph    
Visibilidad 10 Millas    
Eventos      
T = Trace of Precipitation, MM = Missing Value Source: NWS Daily Summary

Daily Weather History Graph

Daily Weather History Graph

Search for Another Location

Airport or City:

Trip Planner

Search our weather history database for the weather conditions in past years. The results will help you decide how hot, cold, wet, or windy it might be!

Date:

Astronomía

Feb. 13, 2018 Salida Puesta
Hora real 8:44 AM AKST 6:04 PM AKST
Crepúsculo civil 8:03 AM AKST 6:45 PM AKST
Crepúsculo náutico 7:17 AM AKST 7:31 PM AKST
Crepúsculo astronómico 6:32 AM AKST 8:16 PM AKST
Luna 7:56 AM AKST (2/13) 3:55 PM AKST (2/13)
Horas de luz 10h 42m
Horas de luz
9h 20m
Creciente menguante, 4% of the Moon is Illuminated
Feb 13
Creciente menguante
Feb 15
Nueva
Feb 22
Cuarto creciente
Mar 1
Luna llena
Mar 9
Cuarto menguante

Hourly Weather History & Observations

Hora (AKST) Temp. Vientos helados Punto de rocío Humedad Presión Visibilidad Wind Dir Velocidad del viento Velocidad de ráfagas Precip Eventos Condiciones
12:53 AM 39.9 ° F 31.8 ° F 24.1 ° F 53% 29.98 pul 10.0 mi Oeste 15.0 mph 40.3 mph N/A   Nubes dispersas
1:53 AM 39.0 ° F 28.8 ° F 25.0 ° F 57% 29.99 pul 10.0 mi Oeste 21.9 mph 38.0 mph N/A   Despejado
2:53 AM 39.0 ° F 26.1 ° F 25.0 ° F 57% 29.99 pul 10.0 mi Oeste 36.8 mph 48.3 mph N/A   Despejado
3:53 AM 37.9 ° F 27.9 ° F 25.0 ° F 60% 30.02 pul 10.0 mi Oeste 19.6 mph 35.7 mph N/A   Despejado
4:53 AM 37.9 ° F 25.5 ° F 24.1 ° F 57% 30.07 pul 10.0 mi Oeste 31.1 mph 39.1 mph N/A   Despejado
5:53 AM 37.9 ° F 26.6 ° F 24.1 ° F 57% 30.08 pul 10.0 mi Oeste 25.3 mph 38.0 mph N/A   Despejado
6:53 AM 37.0 ° F 24.3 ° F 24.1 ° F 59% 30.14 pul 10.0 mi Oeste 31.1 mph 46.0 mph N/A   Despejado
7:53 AM 37.9 ° F 26.8 ° F 24.1 ° F 57% 30.16 pul 10.0 mi Oeste 24.2 mph 39.1 mph N/A   Despejado
8:53 AM 37.0 ° F 27.7 ° F 23.0 ° F 57% 30.20 pul 10.0 mi Oeste 16.1 mph 23.0 mph N/A   Despejado
9:53 AM 37.9 ° F 30.5 ° F 21.9 ° F 53% 30.25 pul 10.0 mi SO 11.5 mph 24.2 mph N/A   Despejado
10:53 AM 39.0 ° F 31.8 ° F 21.0 ° F 49% 30.26 pul 10.0 mi Oeste 11.5 mph 27.6 mph N/A   Nubes dispersas
11:53 AM 39.0 ° F 31.0 ° F 19.9 ° F 46% 30.28 pul 10.0 mi Oeste 13.8 mph 19.6 mph N/A   Nublado
12:53 PM 39.9 ° F 32.1 ° F 19.0 ° F 43% 30.26 pul 10.0 mi NO 13.8 mph 21.9 mph N/A   Nubes dispersas
1:53 PM 39.9 ° F 32.9 ° F 19.0 ° F 43% 30.29 pul 10.0 mi ONO 11.5 mph - N/A   Nubes dispersas
2:53 PM 41.0 ° F 33.1 ° F 19.9 ° F 43% 30.28 pul 10.0 mi ONO 15.0 mph - N/A   Nubes dispersas
3:53 PM 41.0 ° F 34.7 ° F 21.9 ° F 47% 30.30 pul 10.0 mi ONO 10.4 mph - N/A   Despejado
4:53 PM 39.9 ° F 31.8 ° F 24.1 ° F 53% 30.30 pul 10.0 mi ONO 15.0 mph - N/A   Nublado
5:53 PM 41.0 ° F 34.3 ° F 23.0 ° F 49% 30.30 pul 10.0 mi NO 11.5 mph - N/A   Nubes dispersas
6:53 PM 39.9 ° F 34.5 ° F 24.1 ° F 53% 30.32 pul 10.0 mi Oeste 8.1 mph 18.4 mph N/A   Nubes dispersas
7:53 PM 37.0 ° F 32.4 ° F 23.0 ° F 57% 30.32 pul 10.0 mi Oeste 5.8 mph - N/A   Despejado
8:53 PM 34.0 ° F 31.0 ° F 24.1 ° F 67% 30.32 pul 10.0 mi Oeste 3.5 mph - N/A   Despejado
9:53 PM 32.0 ° F 26.4 ° F 24.1 ° F 73% 30.33 pul 10.0 mi ONO 5.8 mph - N/A   Despejado
10:53 PM 33.1 ° F 28.7 ° F 25.0 ° F 72% 30.32 pul 10.0 mi ONO 4.6 mph - N/A   Despejado
11:53 PM 30.9 ° F 24.3 ° F 24.1 ° F 76% 30.34 pul 10.0 mi Oeste 6.9 mph - N/A   Despejado